Station Historical Data
Daily Summary for October 15, 2017 Units:  English    Metric   Both
« Previous Day
Next Day »
Daily Weekly Monthly Yearly Custom
  High: Low: Average:
Temperature: 76.9 °F 51.0 °F 66.2 °F
Dew Point: 66.2 °F 41.7 °F 57.7 °F
Humidity: 88% 67% 75%
Wind Speed: 24.0mph 0.0mph 6.8mph
Wind Gust: 34.0mph - -
Wind- - WSW
Pressure: 30.00 in 29.58 in -
Precipitation: 0.00 in    
Historical Graphs
 
 
Tabular Data for October 15, 2017
Time Temperature Dew Point Pressure Wind Wind Speed Wind Gust Humidity Rainfall Rate (Hourly)
00:00 61.4 °F 57.2 °F 30.00 in ENE 2.0 mph 3.0 mph 86% 0.00 in
00:05 61.4 °F 57.2 °F 30.00 in Calm   4.0 mph 86% 0.00 in
00:10 61.3 °F 57.4 °F 29.99 in ESE 1.0 mph 2.0 mph 87% 0.00 in
00:15 61.3 °F 57.4 °F 29.99 in East 1.0 mph 4.0 mph 87% 0.00 in
00:20 61.2 °F 57.3 °F 29.99 in ESE 1.0 mph 4.0 mph 87% 0.00 in
00:25 61.2 °F 57.3 °F 29.99 in Calm   3.0 mph 87% 0.00 in
00:30 61.2 °F 57.3 °F 29.99 in Calm   6.0 mph 87% 0.00 in
00:34 61.1 °F 57.2 °F 29.98 in East 1.0 mph 6.0 mph 87% 0.00 in
00:39 61.1 °F 57.2 °F 29.98 in Calm   2.0 mph 87% 0.00 in
00:45 61.1 °F 57.5 °F 29.97 in Calm   3.0 mph 88% 0.00 in
00:49 61.0 °F 57.1 °F 29.97 in ESE 1.0 mph 3.0 mph 87% 0.00 in
00:54 61.0 °F 57.1 °F 29.97 in Calm   4.0 mph 87% 0.00 in
01:00 61.0 °F 57.1 °F 29.97 in Calm     87% 0.00 in
01:05 60.9 °F 57.3 °F 29.97 in Calm     88% 0.00 in
01:09 60.9 °F 57.3 °F 29.97 in Calm     88% 0.00 in
01:14 60.9 °F 57.3 °F 29.96 in Calm     88% 0.00 in
01:19 60.8 °F 57.2 °F 29.97 in Calm     88% 0.00 in
01:25 60.8 °F 57.2 °F 29.96 in Calm     88% 0.00 in
01:30 60.9 °F 57.3 °F 29.96 in Calm     88% 0.00 in
01:35 60.9 °F 57.3 °F 29.96 in Calm     88% 0.00 in
01:40 60.9 °F 57.0 °F 29.96 in Calm     87% 0.00 in
01:45 60.8 °F 56.9 °F 29.96 in Calm     87% 0.00 in
01:49 60.8 °F 56.9 °F 29.95 in Calm     87% 0.00 in
01:54 60.9 °F 57.0 °F 29.95 in Calm     87% 0.00 in
01:59 60.9 °F 57.0 °F 29.95 in Calm     87% 0.00 in
02:04 60.9 °F 57.0 °F 29.95 in Calm     87% 0.00 in
02:09 61.0 °F 57.1 °F 29.95 in Calm     87% 0.00 in
02:14 61.0 °F 57.1 °F 29.94 in Calm     87% 0.00 in
02:20 61.1 °F 57.2 °F 29.94 in Calm     87% 0.00 in
02:24 61.0 °F 57.1 °F 29.93 in Calm     87% 0.00 in
02:29 61.0 °F 56.8 °F 29.93 in Calm     86% 0.00 in
02:34 61.0 °F 56.8 °F 29.93 in Calm     86% 0.00 in
02:39 60.9 °F 56.7 °F 29.92 in Calm     86% 0.00 in
02:45 60.9 °F 56.7 °F 29.92 in Calm     86% 0.00 in
02:50 60.9 °F 56.7 °F 29.92 in Calm     86% 0.00 in
02:54 60.8 °F 56.6 °F 29.91 in Calm     86% 0.00 in
02:59 60.8 °F 56.6 °F 29.91 in Calm     86% 0.00 in
03:04 60.8 °F 56.6 °F 29.90 in Calm     86% 0.00 in
03:09 60.6 °F 56.4 °F 29.90 in Calm     86% 0.00 in
03:15 60.7 °F 56.5 °F 29.90 in Calm     86% 0.00 in
03:19 60.8 °F 56.6 °F 29.90 in Calm     86% 0.00 in
03:24 60.9 °F 56.7 °F 29.89 in Calm     86% 0.00 in
03:29 61.1 °F 56.9 °F 29.88 in Calm     86% 0.00 in
03:34 61.2 °F 57.0 °F 29.88 in Calm     86% 0.00 in
03:39 61.3 °F 56.8 °F 29.88 in Calm     85% 0.00 in
03:45 61.5 °F 56.9 °F 29.88 in Calm     85% 0.00 in
03:50 61.5 °F 56.9 °F 29.87 in Calm     85% 0.00 in
03:55 61.4 °F 56.5 °F 29.87 in Calm     84% 0.00 in
03:59 61.4 °F 56.8 °F 29.87 in Calm   3.0 mph 85% 0.00 in
04:04 61.4 °F 56.8 °F 29.86 in Calm   2.0 mph 85% 0.00 in
04:09 61.4 °F 56.8 °F 29.87 in Calm     85% 0.00 in
04:14 61.5 °F 56.6 °F 29.86 in Calm     84% 0.00 in
04:19 61.5 °F 56.9 °F 29.86 in Calm     85% 0.00 in
04:24 61.5 °F 56.9 °F 29.85 in Calm     85% 0.00 in
04:29 61.7 °F 56.8 °F 29.85 in Calm   4.0 mph 84% 0.00 in
04:35 61.8 °F 56.9 °F 29.84 in SW 1.0 mph 3.0 mph 84% 0.00 in
04:39 62.1 °F 57.2 °F 29.84 in SSW 4.0 mph 7.0 mph 84% 0.00 in
04:44 62.8 °F 57.9 °F 29.84 in SW 4.0 mph 11.0 mph 84% 0.00 in
04:49 64.2 °F 58.6 °F 29.83 in WSW 6.0 mph 9.0 mph 82% 0.00 in
04:55 65.6 °F 58.6 °F 29.83 in SSW 4.0 mph 14.0 mph 78% 0.00 in
04:59 66.7 °F 58.9 °F 29.83 in SSW 5.0 mph 14.0 mph 76% 0.00 in
05:04 67.1 °F 58.9 °F 29.83 in SSW 5.0 mph 13.0 mph 75% 0.00 in
05:09 67.5 °F 58.9 °F 29.83 in SSW 6.0 mph 14.0 mph 74% 0.00 in
05:15 67.8 °F 58.8 °F 29.82 in SSW 6.0 mph 14.0 mph 73% 0.00 in
05:20 67.9 °F 58.9 °F 29.82 in SW 3.0 mph 15.0 mph 73% 0.00 in
05:24 67.9 °F 58.9 °F 29.82 in SSW 6.0 mph 15.0 mph 73% 0.00 in
05:29 67.9 °F 58.9 °F 29.83 in SSW 9.0 mph 14.0 mph 73% 0.00 in
05:34 67.9 °F 58.9 °F 29.82 in SSW 7.0 mph 17.0 mph 73% 0.00 in
05:39 67.9 °F 58.9 °F 29.82 in WSW 3.0 mph 12.0 mph 73% 0.00 in
05:44 67.8 °F 58.8 °F 29.82 in SSW 10.0 mph 16.0 mph 73% 0.00 in
05:49 67.8 °F 58.8 °F 29.82 in South 8.0 mph 14.0 mph 73% 0.00 in
05:54 67.7 °F 58.7 °F 29.82 in SSW 6.0 mph 15.0 mph 73% 0.00 in
05:59 67.6 °F 58.6 °F 29.81 in SSW 6.0 mph 16.0 mph 73% 0.00 in
06:04 67.6 °F 59.0 °F 29.81 in SW 9.0 mph 19.0 mph 74% 0.00 in
06:10 67.7 °F 59.1 °F 29.81 in SSW 7.0 mph 19.0 mph 74% 0.00 in
06:14 67.7 °F 59.1 °F 29.81 in SW 6.0 mph 14.0 mph 74% 0.00 in
06:19 67.9 °F 59.3 °F 29.81 in SSW 6.0 mph 17.0 mph 74% 0.00 in
06:24 68.0 °F 59.4 °F 29.80 in SSW 7.0 mph 20.0 mph 74% 0.00 in
06:29 68.0 °F 59.4 °F 29.80 in SSW 7.0 mph 20.0 mph 74% 0.00 in
06:34 68.0 °F 59.4 °F 29.80 in South 7.0 mph 14.0 mph 74% 0.00 in
06:39 68.1 °F 59.5 °F 29.80 in SW 3.0 mph 11.0 mph 74% 0.00 in
06:44 68.2 °F 59.6 °F 29.80 in SSW 7.0 mph 15.0 mph 74% 0.00 in
06:49 68.3 °F 59.7 °F 29.80 in SSW 6.0 mph 16.0 mph 74% 0.00 in
06:54 68.3 °F 59.7 °F 29.80 in SSW 6.0 mph 16.0 mph 74% 0.00 in
06:59 68.5 °F 59.9 °F 29.79 in SSW 6.0 mph 14.0 mph 74% 0.00 in
07:04 68.8 °F 60.2 °F 29.79 in WSW 11.0 mph 22.0 mph 74% 0.00 in
07:09 69.0 °F 60.4 °F 29.78 in SW 16.0 mph 16.0 mph 74% 0.00 in
07:15 69.1 °F 60.5 °F 29.78 in SSW 4.0 mph 20.0 mph 74% 0.00 in
07:19 69.3 °F 60.7 °F 29.78 in SSW 7.0 mph 20.0 mph 74% 0.00 in
07:24 69.4 °F 60.8 °F 29.78 in SSW 7.0 mph 15.0 mph 74% 0.00 in
07:29 69.6 °F 60.9 °F 29.77 in SW 7.0 mph 17.0 mph 74% 0.00 in
07:34 69.6 °F 60.9 °F 29.77 in South 6.0 mph 14.0 mph 74% 0.00 in
07:39 69.7 °F 61.0 °F 29.77 in SW 6.0 mph 14.0 mph 74% 0.00 in
07:44 69.7 °F 61.0 °F 29.77 in SSW 6.0 mph 15.0 mph 74% 0.00 in
07:49 69.8 °F 61.5 °F 29.77 in SSW 7.0 mph 17.0 mph 75% 0.00 in
07:54 69.9 °F 61.2 °F 29.77 in SSW 7.0 mph 17.0 mph 74% 0.00 in
07:59 69.9 °F 61.2 °F 29.77 in SSW 3.0 mph 12.0 mph 74% 0.00 in
08:04 70.0 °F 61.3 °F 29.77 in SSW 15.0 mph 15.0 mph 74% 0.00 in
08:09 70.1 °F 61.8 °F 29.76 in South 3.0 mph 14.0 mph 75% 0.00 in
08:14 70.2 °F 61.9 °F 29.76 in SSW 6.0 mph 15.0 mph 75% 0.00 in
08:19 70.3 °F 62.0 °F 29.76 in SSW 6.0 mph 14.0 mph 75% 0.00 in
08:24 70.5 °F 61.8 °F 29.75 in SSW 7.0 mph 15.0 mph 74% 0.00 in
08:29 70.6 °F 61.9 °F 29.75 in SSW 6.0 mph 15.0 mph 74% 0.00 in
08:34 70.7 °F 62.4 °F 29.75 in SW 10.0 mph 12.0 mph 75% 0.00 in
08:39 71.1 °F 62.4 °F 29.75 in SW 13.0 mph 14.0 mph 74% 0.00 in
08:44 71.4 °F 62.7 °F 29.75 in SSW 6.0 mph 17.0 mph 74% 0.00 in
08:49 71.7 °F 63.0 °F 29.75 in SSW 6.0 mph 17.0 mph 74% 0.00 in
08:54 71.9 °F 63.2 °F 29.75 in SSW 4.0 mph 13.0 mph 74% 0.00 in
08:59 71.9 °F 62.8 °F 29.74 in SSW 5.0 mph 15.0 mph 73% 0.00 in
09:04 72.0 °F 62.9 °F 29.75 in WSW 9.0 mph 16.0 mph 73% 0.00 in
09:09 71.9 °F 62.8 °F 29.74 in SSW 7.0 mph 16.0 mph 73% 0.00 in
09:14 71.9 °F 63.2 °F 29.74 in SSW 6.0 mph 15.0 mph 74% 0.00 in
09:19 72.2 °F 63.1 °F 29.74 in SSW 6.0 mph 17.0 mph 73% 0.00 in
09:24 72.5 °F 63.4 °F 29.74 in SSW 6.0 mph 17.0 mph 73% 0.00 in
09:29 72.9 °F 63.7 °F 29.74 in South 5.0 mph 13.0 mph 73% 0.00 in
09:34 73.2 °F 64.0 °F 29.73 in SW 5.0 mph 13.0 mph 73% 0.00 in
09:39 73.4 °F 64.2 °F 29.73 in South 5.0 mph 9.0 mph 73% 0.00 in
09:44 73.3 °F 63.7 °F 29.73 in West 9.0 mph 13.0 mph 72% 0.00 in
09:49 73.3 °F 63.7 °F 29.73 in SSW 12.0 mph 19.0 mph 72% 0.00 in
09:54 73.3 °F 64.1 °F 29.73 in West 7.0 mph 16.0 mph 73% 0.00 in
09:59 73.4 °F 64.2 °F 29.72 in SSW 7.0 mph 15.0 mph 73% 0.00 in
10:04 73.6 °F 64.4 °F 29.72 in SW 5.0 mph 13.0 mph 73% 0.00 in
10:09 73.7 °F 64.5 °F 29.72 in SW 6.0 mph 14.0 mph 73% 0.00 in
10:14 74.0 °F 64.8 °F 29.72 in SW 6.0 mph 14.0 mph 73% 0.00 in
10:20 74.1 °F 64.9 °F 29.72 in SW 7.0 mph 23.0 mph 73% 0.00 in
10:24 74.2 °F 64.6 °F 29.72 in SW 9.0 mph 20.0 mph 72% 0.00 in
10:29 74.2 °F 64.6 °F 29.71 in SW 8.0 mph 20.0 mph 72% 0.00 in
10:34 74.4 °F 65.2 °F 29.72 in WNW 9.0 mph 20.0 mph 73% 0.00 in
10:39 75.1 °F 65.5 °F 29.71 in SW 7.0 mph 18.0 mph 72% 0.00 in
10:44 76.0 °F 65.5 °F 29.71 in South 6.0 mph 18.0 mph 70% 0.00 in
10:49 75.9 °F 65.4 °F 29.71 in SSW 6.0 mph 21.0 mph 70% 0.00 in
10:54 75.6 °F 65.9 °F 29.70 in SW 5.0 mph 20.0 mph 72% 0.00 in
10:59 75.8 °F 65.3 °F 29.70 in SW 6.0 mph 21.0 mph 70% 0.00 in
11:04 76.6 °F 66.1 °F 29.70 in SW 7.0 mph 21.0 mph 70% 0.00 in
11:09 76.7 °F 65.8 °F 29.70 in South 15.0 mph 18.0 mph 69% 0.00 in
11:14 76.1 °F 65.6 °F 29.70 in SW 24.0 mph 24.0 mph 70% 0.00 in
11:19 75.9 °F 65.4 °F 29.70 in South 10.0 mph 24.0 mph 70% 0.00 in
11:24 75.9 °F 65.4 °F 29.69 in SW 10.0 mph 24.0 mph 70% 0.00 in
11:29 76.1 °F 66.0 °F 29.69 in SW 9.0 mph 20.0 mph 71% 0.00 in
11:34 76.2 °F 65.7 °F 29.69 in SW 9.0 mph 20.0 mph 70% 0.00 in
11:39 75.9 °F 65.4 °F 29.68 in SSE 10.0 mph 17.0 mph 70% 0.00 in
11:44 75.8 °F 65.3 °F 29.68 in SW 8.0 mph 18.0 mph 70% 0.00 in
11:49 75.7 °F 65.2 °F 29.68 in South 9.0 mph 19.0 mph 70% 0.00 in
11:54 75.6 °F 65.5 °F 29.68 in SSW 9.0 mph 19.0 mph 71% 0.00 in
11:59 75.6 °F 65.5 °F 29.68 in SSW 8.0 mph 19.0 mph 71% 0.00 in
12:04 75.6 °F 65.5 °F 29.68 in SSW 7.0 mph 17.0 mph 71% 0.00 in
12:09 75.8 °F 65.7 °F 29.68 in SSW 13.0 mph 18.0 mph 71% 0.00 in
12:14 76.0 °F 65.5 °F 29.68 in SW 10.0 mph 15.0 mph 70% 0.00 in
12:19 75.9 °F 65.4 °F 29.68 in SSW 9.0 mph 19.0 mph 70% 0.00 in
12:24 75.7 °F 65.2 °F 29.68 in SW 8.0 mph 19.0 mph 70% 0.00 in
12:29 75.6 °F 65.5 °F 29.68 in SW 7.0 mph 16.0 mph 71% 0.00 in
12:34 75.5 °F 65.4 °F 29.68 in SW 11.0 mph 16.0 mph 71% 0.00 in
12:39 75.3 °F 65.2 °F 29.68 in South 9.0 mph 17.0 mph 71% 0.00 in
12:44 75.3 °F 65.2 °F 29.67 in SW 10.0 mph 21.0 mph 71% 0.00 in
12:49 75.2 °F 65.1 °F 29.67 in SSW 7.0 mph 22.0 mph 71% 0.00 in
12:54 75.2 °F 65.1 °F 29.67 in SW 11.0 mph 20.0 mph 71% 0.00 in
12:59 75.5 °F 65.4 °F 29.66 in SSW 16.0 mph 21.0 mph 71% 0.00 in
13:04 75.9 °F 65.4 °F 29.66 in WSW 8.0 mph 21.0 mph 70% 0.00 in
13:09 76.7 °F 66.2 °F 29.65 in SW 6.0 mph 13.0 mph 70% 0.00 in
13:14 76.9 °F 66.0 °F 29.65 in SW 8.0 mph 17.0 mph 69% 0.00 in
13:19 76.6 °F 65.7 °F 29.64 in SW 9.0 mph 19.0 mph 69% 0.00 in
13:24 76.4 °F 65.5 °F 29.64 in SW 9.0 mph 19.0 mph 69% 0.00 in
13:29 76.5 °F 65.6 °F 29.64 in SW 9.0 mph 19.0 mph 69% 0.00 in
13:34 76.2 °F 65.3 °F 29.63 in South 17.0 mph 18.0 mph 69% 0.00 in
13:39 75.8 °F 64.9 °F 29.63 in WSW 3.0 mph 18.0 mph 69% 0.00 in
13:44 75.6 °F 65.1 °F 29.62 in SW 8.0 mph 21.0 mph 70% 0.00 in
13:49 75.4 °F 65.3 °F 29.62 in SSW 4.0 mph 10.0 mph 71% 0.00 in
13:54 75.5 °F 65.0 °F 29.61 in SSW 7.0 mph 15.0 mph 70% 0.00 in
13:59 75.5 °F 65.0 °F 29.61 in SW 9.0 mph 15.0 mph 70% 0.00 in
14:04 75.7 °F 65.2 °F 29.61 in SSW 7.0 mph 17.0 mph 70% 0.00 in
14:09 75.5 °F 65.0 °F 29.61 in SW 8.0 mph 17.0 mph 70% 0.00 in
14:14 75.3 °F 65.2 °F 29.60 in SW 7.0 mph 16.0 mph 71% 0.00 in
14:19 75.5 °F 65.0 °F 29.60 in SW 7.0 mph 17.0 mph 70% 0.00 in
14:24 76.4 °F 65.5 °F 29.60 in West 22.0 mph 22.0 mph 69% 0.00 in
14:29 76.6 °F 65.2 °F 29.60 in WSW 6.0 mph 21.0 mph 68% 0.00 in
14:34 76.4 °F 65.1 °F 29.60 in WSW 8.0 mph 20.0 mph 68% 0.00 in
14:39 76.1 °F 64.8 °F 29.60 in SW 10.0 mph 22.0 mph 68% 0.00 in
14:44 75.9 °F 65.0 °F 29.60 in WSW 11.0 mph 22.0 mph 69% 0.00 in
14:49 76.3 °F 65.0 °F 29.61 in WSW 11.0 mph 22.0 mph 68% 0.00 in
14:54 76.4 °F 65.1 °F 29.60 in WSW 11.0 mph 22.0 mph 68% 0.00 in
14:59 76.3 °F 65.0 °F 29.60 in SW 11.0 mph 21.0 mph 68% 0.00 in
15:04 76.1 °F 64.8 °F 29.60 in SW 13.0 mph 19.0 mph 68% 0.00 in
15:09 76.1 °F 64.3 °F 29.59 in WSW 7.0 mph 21.0 mph 67% 0.00 in
15:14 76.1 °F 64.3 °F 29.59 in WSW 6.0 mph 19.0 mph 67% 0.00 in
15:19 76.1 °F 64.3 °F 29.58 in SW 15.0 mph 18.0 mph 67% 0.00 in
15:24 75.8 °F 64.5 °F 29.58 in WNW 10.0 mph 22.0 mph 68% 0.00 in
15:29 75.7 °F 64.4 °F 29.59 in WSW 6.0 mph 19.0 mph 68% 0.00 in
15:34 75.4 °F 64.1 °F 29.59 in SW 9.0 mph 22.0 mph 68% 0.00 in
15:39 75.2 °F 64.3 °F 29.59 in SW 10.0 mph 22.0 mph 69% 0.00 in
15:44 74.9 °F 64.5 °F 29.59 in WSW 6.0 mph 19.0 mph 70% 0.00 in
15:49 74.2 °F 65.0 °F 29.62 in NW 14.0 mph 19.0 mph 73% 0.00 in
15:54 71.8 °F 64.6 °F 29.62 in NW 18.0 mph 34.0 mph 78% 0.14 in
15:59 69.6 °F 63.9 °F 29.61 in WSW 15.0 mph 34.0 mph 82% 0.17 in
16:04 68.8 °F 63.8 °F 29.61 in WSW 14.0 mph 34.0 mph 84% 0.17 in
16:09 68.4 °F 64.0 °F 29.61 in WSW 10.0 mph 24.0 mph 86% 0.17 in
16:14 68.3 °F 63.9 °F 29.61 in WSW 13.0 mph 20.0 mph 86% 0.17 in
16:19 68.4 °F 64.0 °F 29.61 in SW 13.0 mph 21.0 mph 86% 0.17 in
16:24 68.4 °F 64.0 °F 29.62 in SW 13.0 mph 22.0 mph 86% 0.17 in
16:29 68.3 °F 63.9 °F 29.62 in WSW 12.0 mph 24.0 mph 86% 0.17 in
16:34 68.3 °F 63.6 °F 29.63 in SW 10.0 mph 21.0 mph 85% 0.18 in
16:39 68.2 °F 63.5 °F 29.63 in West 6.0 mph 20.0 mph 85% 0.18 in
16:44 68.1 °F 63.1 °F 29.63 in West 7.0 mph 17.0 mph 84% 0.18 in
16:49 68.1 °F 63.1 °F 29.64 in West 9.0 mph 20.0 mph 84% 0.18 in
16:54 68.2 °F 63.2 °F 29.64 in WSW 9.0 mph 20.0 mph 84% 0.04 in
16:59 68.0 °F 61.9 °F 29.65 in West 9.0 mph 21.0 mph 81% 0.01 in
17:04 67.7 °F 60.6 °F 29.64 in West 9.0 mph 21.0 mph 78% 0.01 in
17:09 67.4 °F 58.8 °F 29.64 in West 8.0 mph 18.0 mph 74% 0.01 in
17:14 67.3 °F 57.6 °F 29.65 in West 8.0 mph 20.0 mph 71% 0.01 in
17:19 67.1 °F 56.6 °F 29.66 in WNW 11.0 mph 21.0 mph 69% 0.01 in
17:24 67.0 °F 56.1 °F 29.67 in West 11.0 mph 21.0 mph 68% 0.01 in
17:29 66.9 °F 56.0 °F 29.67 in NW 10.0 mph 17.0 mph 68% 0.01 in
17:34 66.7 °F 55.8 °F 29.67 in WSW 14.0 mph 20.0 mph 68% 0.00 in
17:39 66.6 °F 55.7 °F 29.67 in West 3.0 mph 19.0 mph 68% 0.00 in
17:44 66.4 °F 55.9 °F 29.67 in SSW 11.0 mph 17.0 mph 69% 0.00 in
17:49 66.2 °F 55.7 °F 29.68 in West 10.0 mph 15.0 mph 69% 0.00 in
17:54 66.1 °F 55.6 °F 29.68 in West 7.0 mph 15.0 mph 69% 0.00 in
17:59 66.1 °F 55.2 °F 29.69 in WSW 8.0 mph 24.0 mph 68% 0.00 in
18:04 66.1 °F 55.2 °F 29.71 in SW 6.0 mph 19.0 mph 68% 0.00 in
18:09 65.8 °F 54.9 °F 29.72 in WSW 10.0 mph 20.0 mph 68% 0.00 in
18:14 65.7 °F 54.8 °F 29.71 in SSW 12.0 mph 18.0 mph 68% 0.00 in
18:19 65.5 °F 54.2 °F 29.71 in WNW 9.0 mph 19.0 mph 67% 0.00 in
18:24 65.4 °F 54.2 °F 29.73 in WSW 10.0 mph 19.0 mph 67% 0.00 in
18:29 65.3 °F 54.1 °F 29.73 in West 10.0 mph 22.0 mph 67% 0.00 in
18:34 65.2 °F 54.0 °F 29.72 in WSW 10.0 mph 22.0 mph 67% 0.00 in
18:39 65.0 °F 53.8 °F 29.73 in WSW 10.0 mph 18.0 mph 67% 0.00 in
18:44 64.9 °F 53.7 °F 29.74 in WNW 7.0 mph 17.0 mph 67% 0.00 in
18:49 64.7 °F 53.5 °F 29.74 in WSW 7.0 mph 18.0 mph 67% 0.00 in
18:54 64.6 °F 53.8 °F 29.74 in WSW 8.0 mph 19.0 mph 68% 0.00 in
18:59 64.5 °F 53.7 °F 29.75 in West 13.0 mph 21.0 mph 68% 0.00 in
19:04 64.4 °F 54.0 °F 29.75 in WNW 7.0 mph 14.0 mph 69% 0.00 in
19:09 64.2 °F 53.8 °F 29.75 in West 11.0 mph 13.0 mph 69% 0.00 in
19:14 64.1 °F 53.7 °F 29.75 in West 12.0 mph 16.0 mph 69% 0.00 in
19:19 63.8 °F 53.4 °F 29.76 in WNW 6.0 mph 20.0 mph 69% 0.00 in
19:24 63.6 °F 52.8 °F 29.76 in West 9.0 mph 21.0 mph 68% 0.00 in
19:29 63.4 °F 52.7 °F 29.76 in West 11.0 mph 22.0 mph 68% 0.00 in
19:34 63.3 °F 52.6 °F 29.77 in West 11.0 mph 26.0 mph 68% 0.00 in
19:39 62.9 °F 52.2 °F 29.77 in West 11.0 mph 26.0 mph 68% 0.00 in
19:44 62.3 °F 51.6 °F 29.78 in WNW 10.0 mph 23.0 mph 68% 0.00 in
19:49 61.4 °F 51.1 °F 29.79 in WNW 11.0 mph 19.0 mph 69% 0.00 in
19:54 60.7 °F 50.1 °F 29.79 in WNW 10.0 mph 19.0 mph 68% 0.00 in
19:59 60.1 °F 49.9 °F 29.80 in WNW 11.0 mph 18.0 mph 69% 0.00 in
20:04 59.6 °F 49.4 °F 29.81 in NW 5.0 mph 20.0 mph 69% 0.00 in
20:09 59.2 °F 49.4 °F 29.81 in NW 9.0 mph 13.0 mph 70% 0.00 in
20:14 59.0 °F 49.6 °F 29.81 in NW 14.0 mph 15.0 mph 71% 0.00 in
20:19 58.8 °F 49.8 °F 29.82 in WSW 10.0 mph 18.0 mph 72% 0.00 in
20:24 58.4 °F 49.0 °F 29.82 in WNW 11.0 mph 21.0 mph 71% 0.00 in
20:29 58.2 °F 48.8 °F 29.82 in WNW 11.0 mph 21.0 mph 71% 0.00 in
20:34 58.0 °F 48.6 °F 29.82 in WNW 9.0 mph 21.0 mph 71% 0.00 in
20:39 57.6 °F 48.3 °F 29.83 in WNW 8.0 mph 22.0 mph 71% 0.00 in
20:44 57.1 °F 47.4 °F 29.84 in West 15.0 mph 19.0 mph 70% 0.00 in
20:49 56.6 °F 46.9 °F 29.84 in WNW 6.0 mph 16.0 mph 70% 0.00 in
20:54 56.3 °F 47.0 °F 29.85 in WNW 8.0 mph 19.0 mph 71% 0.00 in
20:59 56.2 °F 46.5 °F 29.85 in West 10.0 mph 19.0 mph 70% 0.00 in
21:04 55.9 °F 45.9 °F 29.86 in NNW 13.0 mph 25.0 mph 69% 0.00 in
21:09 55.6 °F 45.2 °F 29.86 in WNW 12.0 mph 17.0 mph 68% 0.00 in
21:14 55.3 °F 44.9 °F 29.87 in WSW 17.0 mph 19.0 mph 68% 0.00 in
21:19 54.9 °F 44.9 °F 29.87 in WNW 9.0 mph 22.0 mph 69% 0.00 in
21:24 54.7 °F 44.7 °F 29.87 in NW 10.0 mph 22.0 mph 69% 0.00 in
21:29 54.4 °F 44.8 °F 29.88 in WNW 9.0 mph 18.0 mph 70% 0.00 in
21:34 54.2 °F 44.6 °F 29.88 in WNW 9.0 mph 18.0 mph 70% 0.00 in
21:39 54.0 °F 44.4 °F 29.89 in WSW 7.0 mph 20.0 mph 70% 0.00 in
21:44 53.9 °F 44.0 °F 29.89 in West 9.0 mph 20.0 mph 69% 0.00 in
21:49 53.8 °F 44.2 °F 29.90 in NW 12.0 mph 18.0 mph 70% 0.00 in
21:54 53.7 °F 44.1 °F 29.90 in NW 13.0 mph 21.0 mph 70% 0.00 in
21:59 53.7 °F 44.1 °F 29.91 in WNW 6.0 mph 18.0 mph 70% 0.00 in
22:04 53.7 °F 43.8 °F 29.91 in WNW 7.0 mph 20.0 mph 69% 0.00 in
22:09 53.6 °F 43.3 °F 29.91 in NW 11.0 mph 16.0 mph 68% 0.00 in
22:14 53.3 °F 43.0 °F 29.91 in NNW 12.0 mph 16.0 mph 68% 0.00 in
22:19 53.1 °F 42.8 °F 29.92 in WNW 8.0 mph 16.0 mph 68% 0.00 in
22:24 52.9 °F 42.6 °F 29.92 in WNW 9.0 mph 19.0 mph 68% 0.00 in
22:29 52.7 °F 42.4 °F 29.92 in West 8.0 mph 14.0 mph 68% 0.00 in
22:34 52.7 °F 42.4 °F 29.93 in WNW 8.0 mph 18.0 mph 68% 0.00 in
22:39 52.6 °F 42.3 °F 29.93 in NNW 4.0 mph 18.0 mph 68% 0.00 in
22:44 52.5 °F 42.2 °F 29.93 in WNW 2.0 mph 15.0 mph 68% 0.00 in
22:49 52.3 °F 42.0 °F 29.94 in WNW 7.0 mph 15.0 mph 68% 0.00 in
22:54 52.3 °F 42.4 °F 29.94 in WNW 5.0 mph 15.0 mph 69% 0.00 in
22:59 52.2 °F 42.3 °F 29.94 in West 9.0 mph 16.0 mph 69% 0.00 in
23:04 52.2 °F 42.3 °F 29.94 in NW 1.0 mph 11.0 mph 69% 0.00 in
23:09 52.1 °F 42.2 °F 29.95 in NNE 3.0 mph 15.0 mph 69% 0.00 in
23:14 52.1 °F 42.2 °F 29.95 in NW 5.0 mph 11.0 mph 69% 0.00 in
23:19 52.0 °F 42.5 °F 29.95 in NW 5.0 mph 13.0 mph 70% 0.00 in
23:24 51.9 °F 42.4 °F 29.95 in NW 5.0 mph 13.0 mph 70% 0.00 in
23:29 51.7 °F 42.6 °F 29.95 in NW 4.0 mph 10.0 mph 71% 0.00 in
23:34 51.5 °F 42.0 °F 29.95 in NW 5.0 mph 14.0 mph 70% 0.00 in
23:39 51.3 °F 41.8 °F 29.96 in NNW 7.0 mph 14.0 mph 70% 0.00 in
23:44 51.1 °F 41.7 °F 29.96 in NW 5.0 mph 14.0 mph 70% 0.00 in
23:49 51.0 °F 41.9 °F 29.96 in NW 4.0 mph 11.0 mph 71% 0.00 in
23:54 51.0 °F 42.3 °F 29.97 in NNW 7.0 mph 10.0 mph 72% 0.00 in
23:59 51.0 °F 41.9 °F 29.97 in WNW 5.0 mph 17.0 mph 71% 0.00 in
Buffalo, New York, USA
Compliments of Weather Underground - 2.5 mb